When you browse on this site, cookies collect data to enhance your experience and personalize the content and advertising you see.
Visit our Privacy Policy to learn more. By continuing to use the site, you agree to this use of cookies and data.
  • In Hungary
  • List of Countries
  • For 7 days
  • Water Temperature
  • Satellite Maps
  • Weather Map
  • News
  • Weather Widgets
  • user-avatar
    Login

    Hourly Weather Buffalo

    Today, 22 February, Friday

    Time Temperature Precipitation Wind Pressure Humidity
    00:00 -4°C° 0 mm 3 mps 751 mmHg 84%
    01:00 -3°C° 0 mm 2 mps 752 mmHg 85%
    02:00 -3°C° 0 mm 2 mps 752 mmHg 86%
    03:00 -4°C° 0 mm 2 mps 753 mmHg 88%
    04:00 -4°C° 0 mm 2 mps 753 mmHg 89%
    05:00 -4°C° 0 mm 2 mps 754 mmHg 89%
    06:00 -4°C° 0 mm 2 mps 754 mmHg 89%
    07:00 -4°C° 0 mm 2 mps 755 mmHg 89%
    08:00 -3°C° 0 mm 2 mps 756 mmHg 86%
    09:00 -3°C° 0 mm 2 mps 756 mmHg 83%
    10:00 0°C° 0 mm 1 mps 756 mmHg 80%
    11:00 +1°C° 0 mm 1 mps 757 mmHg 77%
    12:00 +1°C° 0 mm 1 mps 757 mmHg 73%
    13:00 +1°C° 0 mm 2 mps 757 mmHg 70%
    14:00 +2°C° 0 mm 1 mps 757 mmHg 69%
    15:00 +2°C° 0 mm 1 mps 757 mmHg 68%
    16:00 +2°C° 0 mm 1 mps 756 mmHg 68%
    17:00 +1°C° 0 mm 1 mps 757 mmHg 72%
    18:00 0°C° 0 mm 1 mps 757 mmHg 77%
    19:00 -1°C° 0 mm 0 mps 757 mmHg 81%
    20:00 -1°C° 0 mm 0 mps 757 mmHg 82%
    21:00 -2°C° 0 mm 0 mps 757 mmHg 82%
    22:00 -2°C° 0 mm 0 mps 757 mmHg 82%
    23:00 -1°C° 0 mm 1 mps 757 mmHg 82%

    Tomorrow, 23 February, Saturday

    Time Temperature Precipitation Wind Pressure Humidity
    00:00 -1°C° 0 mm 1 mps 757 mmHg 82%
    01:00 -3°C° 0 mm 2 mps 757 mmHg 82%
    02:00 -3°C° 0 mm 2 mps 757 mmHg 82%
    03:00 -3°C° 0 mm 2 mps 756 mmHg 82%
    04:00 -3°C° 0 mm 2 mps 756 mmHg 82%
    05:00 -3°C° 0 mm 2 mps 756 mmHg 82%
    06:00 -3°C° 0 mm 2 mps 755 mmHg 82%
    07:00 -3°C° 0 mm 2 mps 755 mmHg 82%
    08:00 -2°C° 0 mm 3 mps 754 mmHg 77%
    09:00 0°C° 0 mm 3 mps 754 mmHg 72%
    10:00 +1°C° 0 mm 3 mps 754 mmHg 67%
    11:00 +2°C° 0 mm 3 mps 753 mmHg 65%
    12:00 +3°C° 0 mm 3 mps 752 mmHg 62%
    13:00 +5°C° 0 mm 3 mps 751 mmHg 60%
    14:00 +5°C° 0 mm 3 mps 750 mmHg 64%
    15:00 +5°C° 0 mm 3 mps 749 mmHg 67%
    16:00 +5°C° 0 mm 3 mps 748 mmHg 71%
    17:00 +4°C° 0 mm 3 mps 747 mmHg 76%
    18:00 +3°C° 0 mm 3 mps 747 mmHg 81%
    19:00 +2°C° 0 mm 3 mps 746 mmHg 86%
    20:00 +1°C° 0.2 mm 4 mps 745 mmHg 86%
    21:00 +3°C° 0.2 mm 4 mps 744 mmHg 87%
    22:00 +2°C° 0.2 mm 5 mps 743 mmHg 88%
    23:00 +2°C° 1.6 mm 5 mps 741 mmHg 88%

    Day after tomorrow, 24 February, Sunday

    Time Temperature Precipitation Wind Pressure Humidity
    00:00 +3°C° 1.6 mm 6 mps 740 mmHg 88%
    01:00 +3°C° 1.6 mm 6 mps 738 mmHg 88%
    02:00 +4°C° 0.5 mm 7 mps 736 mmHg 88%
    03:00 +5°C° 0.5 mm 7 mps 734 mmHg 87%
    04:00 +6°C° 0.5 mm 8 mps 733 mmHg 87%
    05:00 +7°C° 0.9 mm 8 mps 731 mmHg 85%
    06:00 +7°C° 0.9 mm 9 mps 730 mmHg 84%
    07:00 +8°C° 0.9 mm 10 mps 728 mmHg 82%
    08:00 +8°C° 0.1 mm 10 mps 728 mmHg 77%
    09:00 +8°C° 0.1 mm 10 mps 727 mmHg 72%
    10:00 +8°C° 0.1 mm 11 mps 727 mmHg 67%
    11:00 +7°C° 0.2 mm 11 mps 726 mmHg 70%
    12:00 +5°C° 0.2 mm 12 mps 726 mmHg 73%
    13:00 +4°C° 0.2 mm 13 mps 726 mmHg 76%
    14:00 +3°C° 0 mm 14 mps 726 mmHg 73%
    15:00 +1°C° 0 mm 15 mps 727 mmHg 71%
    16:00 0°C° 0 mm 16 mps 727 mmHg 69%
    17:00 -1°C° 0.1 mm 15 mps 728 mmHg 70%
    18:00 -1°C° 0.1 mm 15 mps 729 mmHg 72%
    19:00 -2°C° 0.1 mm 14 mps 730 mmHg 73%
    20:00 -4°C° 0.2 mm 14 mps 731 mmHg 72%
    21:00 -4°C° 0.2 mm 14 mps 731 mmHg 72%
    22:00 -5°C° 0.2 mm 14 mps 732 mmHg 71%
    23:00 -6°C° 0.2 mm 14 mps 732 mmHg 72%

    25 February, Monday

    Time Temperature Precipitation Wind Pressure Humidity
    00:00 -6°C° 0.2 mm 14 mps 733 mmHg 74%
    01:00 -6°C° 0.2 mm 14 mps 733 mmHg 76%
    02:00 -7°C° 0.3 mm 13 mps 734 mmHg 72%
    03:00 -7°C° 0.3 mm 13 mps 736 mmHg 68%
    04:00 -9°C° 0.3 mm 13 mps 737 mmHg 64%
    05:00 -8°C° 0.1 mm 12 mps 738 mmHg 64%
    06:00 -10°C° 0.1 mm 12 mps 740 mmHg 65%
    07:00 -9°C° 0.1 mm 11 mps 742 mmHg 65%
    08:00 -9°C° 0.1 mm 11 mps 744 mmHg 63%
    09:00 -9°C° 0.1 mm 10 mps 745 mmHg 62%
    10:00 -10°C° 0.1 mm 10 mps 747 mmHg 61%
    11:00 -10°C° 0.1 mm 10 mps 747 mmHg 60%
    12:00 -10°C° 0.1 mm 10 mps 748 mmHg 58%
    13:00 -10°C° 0.1 mm 10 mps 749 mmHg 57%
    14:00 -10°C° 0 mm 9 mps 750 mmHg 56%
    15:00 -10°C° 0 mm 9 mps 750 mmHg 56%
    16:00 -11°C° 0 mm 9 mps 751 mmHg 55%
    17:00 -11°C° 0 mm 8 mps 752 mmHg 56%
    18:00 -12°C° 0 mm 7 mps 752 mmHg 57%
    19:00 -11°C° 0 mm 6 mps 753 mmHg 58%
    20:00 -12°C° 0 mm 6 mps 753 mmHg 59%
    21:00 -12°C° 0 mm 5 mps 754 mmHg 59%
    22:00 -12°C° 0 mm 5 mps 754 mmHg 60%
    23:00 -12°C° 0 mm 5 mps 754 mmHg 61%

    26 February, Tuesday

    Time Temperature Precipitation Wind Pressure Humidity
    00:00 -11°C° 0 mm 4 mps 755 mmHg 62%
    01:00 -11°C° 0 mm 4 mps 755 mmHg 62%
    02:00 -12°C° 0 mm 4 mps 755 mmHg 63%
    03:00 -12°C° 0 mm 4 mps 755 mmHg 64%
    04:00 -12°C° 0 mm 4 mps 755 mmHg 65%
    05:00 -12°C° 0 mm 4 mps 756 mmHg 67%
    06:00 -12°C° 0 mm 3 mps 756 mmHg 69%
    07:00 -12°C° 0 mm 3 mps 757 mmHg 71%
    08:00 -12°C° 0 mm 3 mps 757 mmHg 69%
    09:00 -12°C° 0 mm 3 mps 758 mmHg 68%
    10:00 -9°C° 0 mm 2 mps 758 mmHg 66%
    11:00 -9°C° 0 mm 2 mps 758 mmHg 64%
    12:00 -8°C° 0 mm 2 mps 758 mmHg 61%
    13:00 -8°C° 0 mm 2 mps 758 mmHg 58%
    14:00 -7°C° 0 mm 1 mps 757 mmHg 58%
    15:00 -7°C° 0 mm 1 mps 757 mmHg 57%
    16:00 -6°C° 0 mm 1 mps 757 mmHg 57%
    17:00 -8°C° 0 mm 2 mps 757 mmHg 59%
    18:00 -8°C° 0 mm 2 mps 756 mmHg 62%
    19:00 -8°C° 0 mm 2 mps 756 mmHg 64%
    20:00 -9°C° 0.1 mm 3 mps 756 mmHg 69%
    21:00 -10°C° 0.1 mm 3 mps 756 mmHg 73%
    22:00 -11°C° 0.1 mm 4 mps 755 mmHg 77%
    23:00 -11°C° 0.4 mm 4 mps 754 mmHg 81%

    27 February, Wednesday

    Time Temperature Precipitation Wind Pressure Humidity
    00:00 -11°C° 0.4 mm 4 mps 753 mmHg 84%
    01:00 -12°C° 0.4 mm 5 mps 752 mmHg 88%
    02:00 -12°C° 0.6 mm 5 mps 751 mmHg 90%
    03:00 -12°C° 0.6 mm 5 mps 750 mmHg 91%
    04:00 -10°C° 0.6 mm 4 mps 748 mmHg 93%
    05:00 -10°C° 0.8 mm 4 mps 747 mmHg 93%
    06:00 -8°C° 0.8 mm 3 mps 746 mmHg 94%
    07:00 -8°C° 0.8 mm 3 mps 746 mmHg 95%
    08:00 -7°C° 0.8 mm 3 mps 745 mmHg 96%
    09:00 -5°C° 0.8 mm 2 mps 744 mmHg 96%
    10:00 -4°C° 0.8 mm 2 mps 743 mmHg 97%
    11:00 -4°C° 1.1 mm 2 mps 743 mmHg 97%
    12:00 -4°C° 1.1 mm 2 mps 743 mmHg 97%
    13:00 -4°C° 1.1 mm 2 mps 742 mmHg 97%
    14:00 -4°C° 0.4 mm 2 mps 742 mmHg 96%
    15:00 -6°C° 0.4 mm 3 mps 743 mmHg 96%
    16:00 -6°C° 0.4 mm 3 mps 743 mmHg 95%
    17:00 -6°C° 0.1 mm 3 mps 744 mmHg 96%
    18:00 -6°C° 0.1 mm 2 mps 745 mmHg 96%
    19:00 -6°C° 0.1 mm 1 mps 746 mmHg 97%
    20:00 -7°C° 0.1 mm 2 mps 747 mmHg 96%
    21:00 -8°C° 0.1 mm 3 mps 748 mmHg 96%
    22:00 -8°C° 0.1 mm 3 mps 749 mmHg 95%
    23:00 -8°C° 0.1 mm 3 mps 749 mmHg 93%
    Show more